Hundvaag 1 weather for Nov 1994
Month no. 89
Obs.
Da.
Temp. Dew Point Precip. Wind
Speed
Wind gusts Cloud cover Press. Humidity Wind dir. Sunny OPT
01.11.1994 5,5   25,2     8          
02.11.1994 4,9   3,7     1          
03.11.1994 4,6   0,8     1          
04.11.1994 8,1   0,0     1          
05.11.1994 9,5   0,0     1       1  
06.11.1994 8,0   0,0     0          
07.11.1994 3,2   0,0     0          
08.11.1994 6,5   4,3     0          
09.11.1994 6,8   1,1     0          
10.11.1994 5,4   0,5     0          
11.11.1994 4,3   0,0     0          
12.11.1994 4,6   0,0     8       1  
13.11.1994 2,7   0,0     1          
14.11.1994 6,5   6,1     2          
15.11.1994 6,8   8,3     6          
16.11.1994 5,9   8,2     0          
17.11.1994 3,6   12,4     9          
18.11.1994 3,3   1,9     7          
19.11.1994 3,8   1,8     0          
20.11.1994 5,6   2,0     0          
21.11.1994 5,3   1,2     8          
22.11.1994 5,6   0,7     1          
23.11.1994 8,6   2,0     0          
24.11.1994 5,8   2,9     0          
25.11.1994 5,0   1,7     0          
26.11.1994 6,3   3,0     7       1  
27.11.1994 7,3   1,5     0          
28.11.1994 8,0   2,0     0          
29.11.1994 5,8   2,0     6          
30.11.1994 1,9   2,1     9          
                       
Avrg/Sum 5,6   95,4     2,5       3